| time (UTC) | temp C | wind direction | speed KPH | gust KPH | rain 1hr cm | rain 24hr cm | rain mn cm | humidity % | barometer mb |
| 20260507044014 | 10 | 313 | 0.0 | 0.0 | 0.00 | 0.69 | 0.00 | 90 | 1009.1 |
| 20260507043507 | 10 | 313 | 0.0 | 0.0 | 0.00 | 0.69 | 0.00 | 90 | 1008.9 |
| 20260507043024 | 10 | 313 | 0.0 | 0.0 | 0.00 | 0.69 | 0.00 | 89 | 1008.9 |
| 20260507042511 | 10 | 313 | 0.0 | 0.0 | 0.00 | 0.69 | 0.00 | 89 | 1008.8 |
| 20260507042009 | 11 | 313 | 0.0 | 0.0 | 0.00 | 0.69 | 0.00 | 88 | 1008.8 |
| 20260507041008 | 11 | 313 | 0.0 | 1.6 | 0.00 | 0.69 | 0.00 | 87 | 1008.7 |
| 20260507040511 | 11 | 313 | 0.0 | 1.6 | 0.00 | 0.69 | 0.00 | 87 | 1008.7 |
| 20260507035511 | 11 | 321 | 0.0 | 4.8 | 0.00 | 0.69 | 0.69 | 86 | 1008.5 |
| 20260507034526 | 11 | 313 | 1.6 | 4.8 | 0.00 | 0.69 | 0.69 | 86 | 1008.3 |
| 20260507034008 | 11 | 281 | 0.0 | 4.8 | 0.00 | 0.69 | 0.69 | 86 | 1008.5 |
| 20260507033508 | 11 | 29 | 0.0 | 3.2 | 0.00 | 0.69 | 0.69 | 87 | 1008.6 |
| 20260507033023 | 11 | 5 | 0.0 | 4.8 | 0.00 | 0.69 | 0.69 | 87 | 1008.8 |
| 20260507032509 | 11 | 352 | 0.0 | 4.8 | 0.00 | 0.69 | 0.69 | 85 | 1008.7 |
| 20260507032012 | 11 | 346 | 0.0 | 3.2 | 0.00 | 0.69 | 0.69 | 86 | 1008.8 |
| 20260507031525 | 11 | 351 | 0.0 | 1.6 | 0.00 | 0.69 | 0.69 | 87 | 1008.8 |
| 20260507031011 | 11 | 17 | 0.0 | 3.2 | 0.00 | 0.69 | 0.69 | 87 | 1008.7 |
| 20260507030513 | 11 | 17 | 0.0 | 3.2 | 0.00 | 0.69 | 0.69 | 84 | 1008.7 |
| 20260507030025 | 11 | 17 | 0.0 | 3.2 | 0.00 | 0.69 | 0.69 | 85 | 1008.6 |
| 20260507025513 | 11 | 17 | 0.0 | 6.4 | 0.00 | 0.69 | 0.69 | 84 | 1008.6 |
| 20260507025010 | 11 | 68 | 3.2 | 8.0 | 0.00 | 0.69 | 0.69 | 84 | 1008.3 |
| 20260507024529 | 11 | 34 | 3.2 | 9.7 | 0.00 | 0.69 | 0.69 | 86 | 1008.3 |
| 20260507024013 | 11 | 331 | 3.2 | 9.7 | 0.00 | 0.69 | 0.69 | 87 | 1008.1 |
| 20260507023511 | 11 | 324 | 1.6 | 8.0 | 0.00 | 0.69 | 0.69 | 87 | 1008.2 |
| 20260507023028 | 11 | 299 | 1.6 | 4.8 | 0.00 | 0.69 | 0.69 | 88 | 1008.5 |
| 20260507022513 | 12 | 329 | 1.6 | 8.0 | 0.03 | 0.69 | 0.69 | 89 | 1008.4 |
| 20260507022011 | 12 | 294 | 4.8 | 8.0 | 0.03 | 0.69 | 0.69 | 89 | 1008.2 |
| 20260507021524 | 12 | 288 | 1.6 | 6.4 | 0.03 | 0.69 | 0.69 | 89 | 1008.1 |
| 20260507020510 | 12 | 307 | 3.2 | 12.9 | 0.03 | 0.69 | 0.69 | 90 | 1007.7 |
| 20260507015508 | 12 | 348 | 0.0 | 3.2 | 0.03 | 0.69 | 0.69 | 91 | 1007.6 |
| 20260507015014 | 12 | 15 | 0.0 | 6.4 | 0.03 | 0.69 | 0.69 | 90 | 1007.5 |
| 20260507014527 | 13 | 25 | 1.6 | 6.4 | 0.03 | 0.69 | 0.69 | 90 | 1007.6 |
| 20260507014009 | 13 | 284 | 0.0 | 4.8 | 0.03 | 0.69 | 0.69 | 92 | 1007.7 |
| 20260507013508 | 13 | 316 | 3.2 | 4.8 | 0.03 | 0.69 | 0.69 | 92 | 1007.5 |
| 20260507013026 | 13 | 350 | 0.0 | 4.8 | 0.08 | 0.69 | 0.69 | 92 | 1007.6 |
| 20260507012511 | 13 | 305 | 0.0 | 4.8 | 0.05 | 0.66 | 0.66 | 93 | 1007.4 |
| 20260507012011 | 13 | 311 | 0.0 | 4.8 | 0.05 | 0.66 | 0.66 | 92 | 1007.3 |
| 20260507011531 | 13 | 259 | 0.0 | 0.0 | 0.05 | 0.66 | 0.66 | 92 | 1007.2 |
| 20260507011013 | 13 | 311 | 0.0 | 0.0 | 0.05 | 0.66 | 0.66 | 91 | 1007.1 |
| 20260507010509 | 13 | 311 | 0.0 | 3.2 | 0.05 | 0.66 | 0.66 | 90 | 1007.0 |
| 20260507010026 | 13 | 311 | 0.0 | 6.4 | 0.05 | 0.66 | 0.66 | 90 | 1007.2 |
| 20260507005517 | 13 | 289 | 0.0 | 8.0 | 0.05 | 0.66 | 0.66 | 90 | 1007.2 |
| 20260507005002 | 14 | 284 | 3.2 | 8.0 | 0.05 | 0.66 | 0.66 | 92 | 1007.1 |
| 20260507004510 | 14 | 5 | 0.0 | 3.2 | 0.05 | 0.66 | 0.66 | 92 | 1006.7 |
| 20260507004007 | 15 | 85 | 0.0 | 8.0 | 0.05 | 0.66 | 0.66 | 93 | 1006.8 |
| 20260507003511 | 15 | 23 | 0.0 | 12.9 | 0.05 | 0.66 | 0.66 | 93 | 1006.8 |
| 20260507003017 | 15 | 233 | 8.0 | 14.5 | 0.00 | 0.61 | 0.61 | 93 | 1006.4 |
| 20260507002507 | 15 | 171 | 6.4 | 16.1 | 0.00 | 0.61 | 0.61 | 93 | 1006.1 |
| 20260507002009 | 15 | 175 | 6.4 | 17.7 | 0.00 | 0.61 | 0.61 | 93 | 1006.2 |
| 20260507001519 | 15 | 172 | 6.4 | 17.7 | 0.00 | 0.61 | 0.61 | 93 | 1006.1 |
| 20260507001007 | 15 | 170 | 8.0 | 17.7 | 0.00 | 0.61 | 0.61 | 93 | 1005.9 |
| 20260507000510 | 15 | 198 | 8.0 | 16.1 | 0.00 | 0.61 | 0.61 | 93 | 1006.1 |
| 20260507000027 | 15 | 160 | 4.8 | 17.7 | 0.00 | 0.61 | 0.61 | 93 | 1006.1 |
| 20260506235507 | 15 | 201 | 11.3 | 17.7 | 0.00 | 0.61 | 0.61 | 93 | 1006.0 |
| 20260506235010 | 15 | 186 | 6.4 | 16.1 | 0.00 | 0.61 | 0.61 | 93 | 1005.9 |
| 20260506234524 | 15 | 174 | 8.0 | 14.5 | 0.00 | 0.61 | 0.61 | 93 | 1005.9 |
| 20260506234008 | 15 | 193 | 8.0 | 12.9 | 0.00 | 0.61 | 0.61 | 93 | 1005.8 |
| 20260506233508 | 15 | 178 | 6.4 | 19.3 | 0.00 | 0.61 | 0.61 | 93 | 1005.8 |
| 20260506233012 | 15 | 179 | 8.0 | 19.3 | 0.00 | 0.61 | 0.61 | 93 | 1005.7 |
| 20260506232509 | 15 | 161 | 8.0 | 17.7 | 0.00 | 0.61 | 0.61 | 93 | 1005.8 |
| 20260506232009 | 15 | 196 | 8.0 | 19.3 | 0.00 | 0.61 | 0.61 | 93 | 1005.8 |
| 20260506231517 | 15 | 151 | 6.4 | 19.3 | 0.00 | 0.61 | 0.61 | 93 | 1005.8 |
| 20260506231008 | 15 | 161 | 4.8 | 12.9 | 0.00 | 0.61 | 0.61 | 93 | 1005.8 |
| 20260506230509 | 15 | 205 | 8.0 | 17.7 | 0.00 | 0.61 | 0.61 | 92 | 1005.7 |
| 20260506230021 | 15 | 165 | 8.0 | 17.7 | 0.00 | 0.61 | 0.61 | 92 | 1005.6 |
| 20260506225509 | 15 | 150 | 6.4 | 16.1 | 0.03 | 0.61 | 0.61 | 92 | 1005.6 |
| 20260506225009 | 15 | 200 | 6.4 | 16.1 | 0.03 | 0.61 | 0.61 | 92 | 1005.6 |
| 20260506224524 | 15 | 147 | 6.4 | 16.1 | 0.08 | 0.61 | 0.61 | 92 | 1005.5 |
| 20260506224009 | 15 | 213 | 6.4 | 14.5 | 0.10 | 0.61 | 0.61 | 92 | 1005.5 |
| 20260506223510 | 15 | 242 | 6.4 | 14.5 | 0.13 | 0.61 | 0.61 | 92 | 1005.5 |
| 20260506223008 | 15 | 172 | 6.4 | 17.7 | 0.13 | 0.61 | 0.61 | 92 | 1005.6 |
| 20260506222507 | 15 | 191 | 8.0 | 19.3 | 0.18 | 0.61 | 0.61 | 92 | 1005.6 |
| 20260506222009 | 15 | 180 | 8.0 | 22.5 | 0.23 | 0.61 | 0.61 | 92 | 1005.6 |
| 20260506221513 | 15 | 175 | 8.0 | 22.5 | 0.25 | 0.61 | 0.61 | 92 | 1005.5 |
| 20260506221008 | 15 | 194 | 9.7 | 16.1 | 0.28 | 0.61 | 0.61 | 92 | 1005.6 |
| 20260506220508 | 15 | 197 | 6.4 | 25.7 | 0.30 | 0.61 | 0.61 | 93 | 1005.6 |
| 20260506220028 | 15 | 238 | 9.7 | 25.7 | 0.30 | 0.61 | 0.61 | 93 | 1005.6 |
| 20260506215509 | 15 | 199 | 6.4 | 17.7 | 0.28 | 0.58 | 0.58 | 93 | 1005.6 |
| 20260506215011 | 15 | 186 | 6.4 | 19.3 | 0.28 | 0.58 | 0.58 | 92 | 1005.6 |
| 20260506214526 | 15 | 186 | 6.4 | 19.3 | 0.23 | 0.53 | 0.53 | 92 | 1005.5 |
| 20260506214010 | 15 | 208 | 6.4 | 12.9 | 0.20 | 0.51 | 0.51 | 92 | 1005.6 |
| 20260506213510 | 15 | 180 | 6.4 | 16.1 | 0.18 | 0.48 | 0.48 | 92 | 1005.7 |
| 20260506213024 | 15 | 172 | 6.4 | 17.7 | 0.18 | 0.48 | 0.48 | 92 | 1005.7 |
| 20260506212511 | 15 | 196 | 6.4 | 17.7 | 0.15 | 0.43 | 0.43 | 92 | 1005.7 |
| 20260506212013 | 15 | 158 | 9.7 | 17.7 | 0.10 | 0.38 | 0.38 | 92 | 1005.8 |
| 20260506211515 | 15 | 198 | 11.3 | 17.7 | 0.08 | 0.36 | 0.36 | 92 | 1005.8 |
| 20260506211007 | 15 | 192 | 8.0 | 17.7 | 0.05 | 0.33 | 0.33 | 91 | 1005.8 |
| 20260506210509 | 15 | 209 | 9.7 | 19.3 | 0.03 | 0.30 | 0.30 | 91 | 1005.8 |
| 20260506210020 | 15 | 196 | 9.7 | 19.3 | 0.05 | 0.30 | 0.30 | 91 | 1005.8 |
| 20260506205509 | 15 | 217 | 11.3 | 19.3 | 0.05 | 0.30 | 0.30 | 91 | 1005.8 |
| 20260506205008 | 15 | 192 | 6.4 | 20.9 | 0.05 | 0.30 | 0.30 | 91 | 1005.8 |
| 20260506204526 | 15 | 170 | 9.7 | 20.9 | 0.05 | 0.30 | 0.30 | 91 | 1005.9 |
| 20260506204010 | 15 | 172 | 8.0 | 16.1 | 0.08 | 0.30 | 0.30 | 91 | 1005.9 |
| 20260506203509 | 15 | 204 | 8.0 | 16.1 | 0.08 | 0.30 | 0.30 | 91 | 1005.9 |
| 20260506203026 | 15 | 153 | 6.4 | 19.3 | 0.08 | 0.30 | 0.30 | 91 | 1005.9 |
| 20260506202514 | 15 | 179 | 9.7 | 19.3 | 0.05 | 0.28 | 0.28 | 91 | 1006.0 |
| 20260506202011 | 15 | 186 | 4.8 | 22.5 | 0.08 | 0.28 | 0.28 | 91 | 1006.0 |
| 20260506201540 | 15 | 207 | 9.7 | 22.5 | 0.08 | 0.28 | 0.28 | 91 | 1006.2 |
| 20260506201008 | 15 | 200 | 6.4 | 20.9 | 0.08 | 0.28 | 0.28 | 91 | 1006.1 |
| 20260506200507 | 15 | 195 | 9.7 | 24.1 | 0.08 | 0.28 | 0.28 | 91 | 1006.2 |
| 20260506200024 | 15 | 189 | 6.4 | 24.1 | 0.08 | 0.25 | 0.25 | 91 | 1006.2 |
| 20260506195508 | 15 | 161 | 4.8 | 17.7 | 0.10 | 0.25 | 0.25 | 91 | 1006.4 |
| 20260506195013 | 15 | 161 | 8.0 | 24.1 | 0.10 | 0.25 | 0.25 | 91 | 1006.3 |
| 20260506194520 | 15 | 163 | 11.3 | 24.1 | 0.10 | 0.25 | 0.25 | 90 | 1006.4 |
| 20260506194017 | 15 | 198 | 11.3 | 19.3 | 0.08 | 0.23 | 0.23 | 90 | 1006.5 |
| 20260506193511 | 15 | 148 | 8.0 | 25.7 | 0.10 | 0.23 | 0.23 | 90 | 1006.6 |
| 20260506193025 | 15 | 223 | 12.9 | 25.7 | 0.10 | 0.23 | 0.23 | 90 | 1006.6 |
| 20260506192510 | 15 | 171 | 9.7 | 30.6 | 0.10 | 0.23 | 0.23 | 91 | 1006.5 |
| 20260506192013 | 15 | 142 | 9.7 | 32.2 | 0.08 | 0.20 | 0.20 | 91 | 1006.6 |
| 20260506191528 | 15 | 146 | 16.1 | 32.2 | 0.08 | 0.20 | 0.20 | 90 | 1006.7 |
| 20260506191009 | 15 | 173 | 8.0 | 32.2 | 0.08 | 0.20 | 0.20 | 90 | 1006.8 |
| 20260506190508 | 15 | 162 | 8.0 | 32.2 | 0.08 | 0.20 | 0.20 | 90 | 1006.9 |
| 20260506190028 | 15 | 198 | 8.0 | 17.7 | 0.05 | 0.18 | 0.18 | 90 | 1006.9 |
| 20260506185507 | 15 | 207 | 8.0 | 19.3 | 0.03 | 0.15 | 0.15 | 89 | 1007.1 |
| 20260506185007 | 15 | 186 | 12.9 | 22.5 | 0.05 | 0.15 | 0.15 | 89 | 1007.0 |
| 20260506184517 | 15 | 186 | 9.7 | 25.7 | 0.05 | 0.15 | 0.15 | 89 | 1007.0 |
| 20260506184008 | 15 | 200 | 9.7 | 25.7 | 0.05 | 0.15 | 0.15 | 89 | 1007.1 |
| 20260506183510 | 16 | 210 | 9.7 | 20.9 | 0.03 | 0.13 | 0.13 | 88 | 1007.0 |
| 20260506183022 | 16 | 197 | 8.0 | 20.9 | 0.05 | 0.13 | 0.13 | 88 | 1007.0 |
| 20260506182507 | 16 | 171 | 3.2 | 19.3 | 0.08 | 0.13 | 0.13 | 88 | 1007.0 |
| 20260506182016 | 16 | 236 | 6.4 | 24.1 | 0.08 | 0.13 | 0.13 | 87 | 1007.2 |
| 20260506181526 | 16 | 222 | 9.7 | 25.7 | 0.10 | 0.13 | 0.13 | 87 | 1007.2 |
| 20260506181010 | 16 | 205 | 11.3 | 25.7 | 0.13 | 0.13 | 0.13 | 87 | 1007.0 |
| 20260506180509 | 16 | 188 | 11.3 | 25.7 | 0.13 | 0.13 | 0.13 | 86 | 1007.0 |
| 20260506180028 | 16 | 187 | 12.9 | 25.7 | 0.13 | 0.13 | 0.13 | 86 | 1006.7 |
| 20260506175511 | 16 | 201 | 11.3 | 22.5 | 0.13 | 0.13 | 0.13 | 86 | 1006.8 |
| 20260506175008 | 16 | 188 | 11.3 | 22.5 | 0.10 | 0.10 | 0.10 | 86 | 1007.0 |
| 20260506174516 | 16 | 182 | 8.0 | 16.1 | 0.10 | 0.10 | 0.10 | 86 | 1007.1 |
| 20260506174007 | 16 | 194 | 6.4 | 17.7 | 0.10 | 0.10 | 0.10 | 86 | 1007.0 |
| 20260506173507 | 16 | 194 | 6.4 | 17.7 | 0.10 | 0.10 | 0.10 | 85 | 1007.2 |
| 20260506173021 | 17 | 191 | 6.4 | 19.3 | 0.08 | 0.08 | 0.08 | 84 | 1007.3 |
| 20260506172509 | 17 | 103 | 8.0 | 24.1 | 0.05 | 0.05 | 0.05 | 83 | 1007.5 |
| 20260506172011 | 17 | 198 | 6.4 | 24.1 | 0.05 | 0.05 | 0.05 | 81 | 1007.7 |
| 20260506171535 | 18 | 150 | 6.4 | 20.9 | 0.03 | 0.03 | 0.03 | 79 | 1007.6 |
| 20260506171008 | 18 | 169 | 9.7 | 20.9 | 0.00 | 0.00 | 0.00 | 77 | 1007.9 |
| 20260506170512 | 18 | 227 | 9.7 | 20.9 | 0.00 | 0.00 | 0.00 | 76 | 1007.9 |
| 20260506170027 | 18 | 175 | 9.7 | 16.1 | 0.00 | 0.00 | 0.00 | 76 | 1007.7 |
| 20260506165508 | 19 | 196 | 8.0 | 20.9 | 0.00 | 0.00 | 0.00 | 74 | 1007.7 |
| 20260506165010 | 19 | 219 | 11.3 | 20.9 | 0.00 | 0.00 | 0.00 | 73 | 1007.7 |
| 20260506164527 | 19 | 162 | 8.0 | 17.7 | 0.00 | 0.00 | 0.00 | 72 | 1007.7 |
| 20260506164016 | 19 | 203 | 6.4 | 14.5 | 0.00 | 0.00 | 0.00 | 72 | 1007.6 |
| 20260506163513 | 20 | 195 | 8.0 | 20.9 | 0.00 | 0.00 | 0.00 | 72 | 1007.7 |
| 20260506163030 | 20 | 217 | 6.4 | 20.9 | 0.00 | 0.00 | 0.00 | 71 | 1007.7 |
| 20260506162506 | 20 | 155 | 9.7 | 20.9 | 0.00 | 0.00 | 0.00 | 70 | 1007.6 |
| 20260506162012 | 20 | 164 | 6.4 | 22.5 | 0.00 | 0.00 | 0.00 | 69 | 1007.7 |
| 20260506161524 | 20 | 180 | 9.7 | 22.5 | 0.00 | 0.00 | 0.00 | 69 | 1007.8 |
| 20260506161011 | 20 | 143 | 8.0 | 16.1 | 0.00 | 0.00 | 0.00 | 70 | 1007.9 |
| 20260506160512 | 20 | 189 | 6.4 | 17.7 | 0.00 | 0.00 | 0.00 | 70 | 1008.0 |
| 20260506160030 | 19 | 162 | 6.4 | 17.7 | 0.00 | 0.00 | 0.00 | 71 | 1008.1 |
| 20260506155509 | 19 | 159 | 6.4 | 17.7 | 0.00 | 0.00 | 0.00 | 71 | 1008.1 |
| 20260506155013 | 19 | 217 | 6.4 | 17.7 | 0.00 | 0.00 | 0.00 | 71 | 1008.3 |
| 20260506154536 | 18 | 197 | 11.3 | 16.1 | 0.00 | 0.00 | 0.00 | 72 | 1008.4 |
| 20260506154019 | 18 | 173 | 4.8 | 20.9 | 0.00 | 0.00 | 0.00 | 73 | 1008.5 |
| 20260506153511 | 18 | 156 | 6.4 | 22.5 | 0.00 | 0.00 | 0.00 | 72 | 1008.5 |
| 20260506153027 | 18 | 150 | 9.7 | 22.5 | 0.00 | 0.00 | 0.00 | 73 | 1008.6 |
| 20260506152510 | 18 | 173 | 8.0 | 12.9 | 0.00 | 0.00 | 0.00 | 73 | 1008.7 |
| 20260506152011 | 18 | 155 | 4.8 | 17.7 | 0.00 | 0.00 | 0.00 | 74 | 1008.7 |
| 20260506151523 | 18 | 222 | 8.0 | 16.1 | 0.00 | 0.00 | 0.00 | 73 | 1008.8 |
| 20260506151010 | 18 | 211 | 8.0 | 19.3 | 0.00 | 0.00 | 0.00 | 74 | 1008.8 |
| 20260506150510 | 18 | 183 | 9.7 | 19.3 | 0.00 | 0.00 | 0.00 | 74 | 1008.8 |
| 20260506150026 | 18 | 184 | 8.0 | 19.3 | 0.00 | 0.00 | 0.00 | 75 | 1009.0 |
| 20260506145507 | 17 | 165 | 9.7 | 16.1 | 0.00 | 0.00 | 0.00 | 75 | 1009.0 |
| 20260506145009 | 17 | 197 | 9.7 | 16.1 | 0.00 | 0.00 | 0.00 | 75 | 1009.0 |
| 20260506144527 | 17 | 164 | 6.4 | 16.1 | 0.00 | 0.00 | 0.00 | 75 | 1008.9 |
| 20260506144012 | 17 | 200 | 4.8 | 27.4 | 0.00 | 0.00 | 0.00 | 75 | 1009.0 |
| 20260506143511 | 17 | 178 | 11.3 | 27.4 | 0.00 | 0.00 | 0.00 | 75 | 1009.0 |
| 20260506143028 | 17 | 222 | 11.3 | 22.5 | 0.00 | 0.00 | 0.00 | 75 | 1009.0 |
| 20260506142511 | 17 | 182 | 11.3 | 22.5 | 0.00 | 0.00 | 0.00 | 75 | 1009.0 |
| 20260506142012 | 17 | 203 | 11.3 | 20.9 | 0.00 | 0.00 | 0.00 | 75 | 1009.0 |
| 20260506141528 | 17 | 143 | 12.9 | 20.9 | 0.00 | 0.00 | 0.00 | 75 | 1008.9 |
| 20260506140511 | 17 | 173 | 9.7 | 22.5 | 0.00 | 0.00 | 0.00 | 76 | 1008.9 |
| 20260506140024 | 17 | 179 | 9.7 | 25.7 | 0.00 | 0.00 | 0.00 | 76 | 1009.0 |
| 20260506135507 | 17 | 212 | 14.5 | 40.2 | 0.00 | 0.00 | 0.00 | 76 | 1008.9 |
| 20260506135009 | 17 | 191 | 9.7 | 40.2 | 0.00 | 0.00 | 0.00 | 76 | 1008.7 |
| 20260506134524 | 17 | 208 | 9.7 | 25.7 | 0.00 | 0.00 | 0.00 | 77 | 1008.7 |
| 20260506134013 | 17 | 192 | 9.7 | 25.7 | 0.00 | 0.00 | 0.00 | 78 | 1008.7 |
| 20260506133511 | 16 | 184 | 11.3 | 22.5 | 0.00 | 0.00 | 0.00 | 77 | 1008.8 |
| 20260506133024 | 16 | 155 | 12.9 | 22.5 | 0.00 | 0.00 | 0.00 | 77 | 1008.8 |
| 20260506132510 | 16 | 167 | 6.4 | 19.3 | 0.00 | 0.00 | 0.00 | 78 | 1008.8 |
| 20260506132015 | 16 | 105 | 6.4 | 24.1 | 0.00 | 0.00 | 0.00 | 78 | 1008.7 |
| 20260506131526 | 16 | 209 | 11.3 | 24.1 | 0.00 | 0.00 | 0.00 | 78 | 1008.8 |
| 20260506131010 | 16 | 205 | 9.7 | 17.7 | 0.00 | 0.00 | 0.00 | 78 | 1008.9 |
| 20260506130520 | 16 | 159 | 9.7 | 17.7 | 0.00 | 0.00 | 0.00 | 78 | 1008.9 |
| 20260506130024 | 16 | 171 | 6.4 | 20.9 | 0.00 | 0.00 | 0.00 | 78 | 1008.9 |
| 20260506125507 | 16 | 168 | 9.7 | 20.9 | 0.00 | 0.00 | 0.00 | 79 | 1008.9 |
| 20260506125010 | 16 | 180 | 6.4 | 19.3 | 0.00 | 0.00 | 0.00 | 79 | 1008.9 |
| 20260506124524 | 16 | 169 | 8.0 | 19.3 | 0.00 | 0.00 | 0.00 | 80 | 1009.1 |
| 20260506124010 | 16 | 198 | 9.7 | 16.1 | 0.00 | 0.00 | 0.00 | 79 | 1009.3 |
| 20260506123511 | 16 | 169 | 8.0 | 17.7 | 0.00 | 0.00 | 0.00 | 80 | 1009.2 |
| 20260506123027 | 16 | 209 | 8.0 | 17.7 | 0.00 | 0.00 | 0.00 | 80 | 1009.4 |
| 20260506122511 | 15 | 212 | 8.0 | 16.1 | 0.00 | 0.00 | 0.00 | 80 | 1009.4 |
| 20260506122010 | 15 | 205 | 4.8 | 22.5 | 0.00 | 0.00 | 0.00 | 80 | 1009.4 |
| 20260506121528 | 15 | 237 | 8.0 | 22.5 | 0.00 | 0.00 | 0.00 | 81 | 1009.4 |
| 20260506121011 | 15 | 202 | 6.4 | 12.9 | 0.00 | 0.00 | 0.00 | 81 | 1009.4 |
| 20260506120514 | 15 | 213 | 6.4 | 25.7 | 0.00 | 0.00 | 0.00 | 81 | 1009.3 |
| 20260506120032 | 15 | 229 | 6.4 | 25.7 | 0.00 | 0.00 | 0.00 | 81 | 1009.4 |
| 20260506115510 | 15 | 167 | 11.3 | 22.5 | 0.00 | 0.00 | 0.00 | 81 | 1009.5 |
| 20260506115013 | 15 | 243 | 9.7 | 20.9 | 0.00 | 0.00 | 0.00 | 81 | 1009.3 |
| 20260506114526 | 15 | 190 | 11.3 | 19.3 | 0.00 | 0.00 | 0.00 | 82 | 1009.3 |
| 20260506114009 | 15 | 252 | 6.4 | 16.1 | 0.00 | 0.00 | 0.00 | 82 | 1009.3 |
| 20260506113511 | 15 | 173 | 8.0 | 19.3 | 0.00 | 0.00 | 0.00 | 82 | 1009.3 |
| 20260506113028 | 15 | 173 | 6.4 | 19.3 | 0.00 | 0.00 | 0.00 | 82 | 1009.5 |
| 20260506112510 | 15 | 217 | 8.0 | 20.9 | 0.00 | 0.00 | 0.00 | 82 | 1009.4 |
| 20260506112010 | 15 | 205 | 8.0 | 20.9 | 0.00 | 0.00 | 0.00 | 82 | 1009.4 |
| 20260506111529 | 15 | 217 | 6.4 | 17.7 | 0.00 | 0.00 | 0.00 | 82 | 1009.4 |
| 20260506111010 | 15 | 205 | 6.4 | 19.3 | 0.00 | 0.00 | 0.00 | 82 | 1009.4 |
| 20260506110507 | 14 | 137 | 6.4 | 19.3 | 0.00 | 0.00 | 0.00 | 83 | 1009.4 |
| 20260506110028 | 14 | 207 | 6.4 | 17.7 | 0.00 | 0.00 | 0.00 | 83 | 1009.7 |
| 20260506105512 | 14 | 173 | 11.3 | 19.3 | 0.00 | 0.00 | 0.00 | 84 | 1009.7 |
| 20260506105011 | 13 | 173 | 8.0 | 19.3 | 0.00 | 0.00 | 0.00 | 84 | 1009.7 |
| 20260506104528 | 13 | 209 | 8.0 | 17.7 | 0.00 | 0.00 | 0.00 | 84 | 1009.7 |
| 20260506104010 | 13 | 186 | 8.0 | 19.3 | 0.00 | 0.00 | 0.00 | 84 | 1009.7 |
| 20260506103508 | 13 | 178 | 6.4 | 19.3 | 0.00 | 0.00 | 0.00 | 84 | 1009.8 |
| 20260506103028 | 13 | 204 | 9.7 | 16.1 | 0.00 | 0.00 | 0.00 | 84 | 1009.7 |
| 20260506102510 | 13 | 204 | 9.7 | 16.1 | 0.00 | 0.00 | 0.00 | 84 | 1009.6 |
| 20260506102012 | 13 | 184 | 9.7 | 16.1 | 0.00 | 0.00 | 0.00 | 84 | 1009.5 |
| 20260506101528 | 13 | 193 | 6.4 | 12.9 | 0.00 | 0.00 | 0.00 | 84 | 1009.3 |
| 20260506101015 | 13 | 158 | 6.4 | 17.7 | 0.00 | 0.00 | 0.00 | 84 | 1009.4 |
| 20260506100508 | 13 | 211 | 8.0 | 17.7 | 0.00 | 0.00 | 0.00 | 84 | 1009.5 |
| 20260506100026 | 13 | 198 | 8.0 | 16.1 | 0.00 | 0.00 | 0.00 | 84 | 1009.5 |
| 20260506095506 | 13 | 221 | 4.8 | 14.5 | 0.00 | 0.00 | 0.00 | 84 | 1009.4 |
| 20260506095011 | 13 | 208 | 8.0 | 17.7 | 0.00 | 0.00 | 0.00 | 83 | 1009.5 |
| 20260506094520 | 13 | 217 | 8.0 | 17.7 | 0.00 | 0.00 | 0.00 | 84 | 1009.3 |
| 20260506094003 | 13 | 195 | 6.4 | 12.9 | 0.00 | 0.00 | 0.00 | 83 | 1009.4 |
| 20260506093504 | 13 | 188 | 4.8 | 12.9 | 0.00 | 0.00 | 0.00 | 83 | 1009.5 |
| 20260506093012 | 13 | 223 | 1.6 | 12.9 | 0.00 | 0.00 | 0.00 | 83 | 1009.6 |
| 20260506092505 | 13 | 238 | 4.8 | 16.1 | 0.00 | 0.00 | 0.00 | 83 | 1009.5 |
| 20260506092007 | 13 | 188 | 4.8 | 16.1 | 0.00 | 0.00 | 0.00 | 82 | 1009.5 |
| 20260506091508 | 13 | 178 | 4.8 | 14.5 | 0.00 | 0.00 | 0.00 | 82 | 1009.4 |
| 20260506091008 | 13 | 193 | 4.8 | 17.7 | 0.00 | 0.00 | 0.00 | 82 | 1009.4 |
| 20260506090506 | 14 | 211 | 6.4 | 17.7 | 0.00 | 0.00 | 0.00 | 82 | 1009.4 |
| 20260506090016 | 14 | 183 | 4.8 | 16.1 | 0.00 | 0.00 | 0.00 | 81 | 1009.5 |
| 20260506085506 | 14 | 192 | 6.4 | 17.7 | 0.00 | 0.00 | 0.00 | 81 | 1009.4 |
| 20260506085007 | 14 | 167 | 6.4 | 17.7 | 0.00 | 0.00 | 0.00 | 81 | 1009.4 |
| 20260506084520 | 14 | 190 | 4.8 | 14.5 | 0.00 | 0.00 | 0.00 | 81 | 1009.4 |
| 20260506083509 | 14 | 213 | 8.0 | 14.5 | 0.00 | 0.00 | 0.00 | 80 | 1009.6 |
| 20260506082508 | 15 | 204 | 4.8 | 19.3 | 0.00 | 0.00 | 0.00 | 79 | 1009.5 |
| 20260506082007 | 15 | 200 | 4.8 | 16.1 | 0.00 | 0.00 | 0.00 | 79 | 1009.6 |
| 20260506081508 | 15 | 175 | 6.4 | 17.7 | 0.00 | 0.00 | 0.00 | 79 | 1009.5 |
| 20260506081011 | 15 | 201 | 9.7 | 20.9 | 0.00 | 0.00 | 0.00 | 79 | 1009.4 |
| 20260506080507 | 15 | 185 | 9.7 | 20.9 | 0.00 | 0.00 | 0.00 | 79 | 1009.5 |
| 20260506073514 | 15 | 177 | 4.8 | 17.7 | 0.00 | 0.00 | 0.00 | 78 | 1009.5 |
| 20260506073024 | 15 | 200 | 8.0 | 16.1 | 0.00 | 0.00 | 0.00 | 78 | 1009.5 |
| 20260506072509 | 15 | 207 | 8.0 | 14.5 | 0.00 | 0.00 | 0.00 | 77 | 1009.6 |
| 20260506072015 | 15 | 174 | 6.4 | 14.5 | 0.00 | 0.00 | 0.00 | 77 | 1009.5 |
| 20260506071508 | 15 | 186 | 6.4 | 16.1 | 0.00 | 0.00 | 0.00 | 77 | 1009.5 |
| 20260506071005 | 15 | 194 | 6.4 | 16.1 | 0.00 | 0.00 | 0.00 | 76 | 1009.4 |
| 20260506070503 | 15 | 187 | 8.0 | 16.1 | 0.00 | 0.00 | 0.00 | 76 | 1009.4 |
| 20260506062507 | 16 | 202 | 11.3 | 16.1 | 0.00 | 0.00 | 0.00 | 72 | 1009.0 |
| 20260506062011 | 16 | 184 | 8.0 | 16.1 | 0.00 | 0.00 | 0.00 | 72 | 1009.1 |
| 20260506061525 | 16 | 156 | 6.4 | 16.1 | 0.00 | 0.00 | 0.00 | 71 | 1009.1 |
| 20260506061010 | 16 | 193 | 8.0 | 14.5 | 0.00 | 0.00 | 0.00 | 71 | 1009.1 |
| 20260506060503 | 16 | 181 | 6.4 | 14.5 | 0.00 | 0.00 | 0.00 | 71 | 1009.1 |
| 20260506051008 | 16 | 154 | 8.0 | 22.5 | 0.00 | 0.00 | 0.00 | 68 | 1009.3 |
| 20260506050509 | 16 | 186 | 11.3 | 20.9 | 0.00 | 0.00 | 0.00 | 68 | 1009.2 |
| 20260506045005 | 16 | 180 | 6.4 | 17.7 | 0.00 | 0.00 | 0.00 | 68 | 1009.4 |